Time,TemperatureF,DewpointF,PressureIn,WindDirection,WindDirectionDegrees,WindSpeedMPH,WindSpeedGustMPH,Humidity,HourlyPrecipIn,Conditions,Clouds,dailyrainin,SoftwareType,DateUTC
2013-02-23 00:00:00,71.7,69.4,30.02,SW,231,3.5,4.2,93,0.00,,---,0.00,VWS V14.01,2013-02-23 05:00:00,
2013-02-23 00:01:00,72.5,70.2,30.02,SW,231,3.9,4.5,92,0.00,,---,0.00,VWS V14.01,2013-02-23 05:01:00,
2013-02-23 00:06:00,72.5,70.2,30.02,SW,231,2.4,4.3,92,0.00,,---,0.00,VWS V14.01,2013-02-23 05:06:00,
2013-02-23 00:11:00,72.5,70.1,30.02,SW,236,3.7,6.3,92,0.00,,---,0.00,VWS V14.01,2013-02-23 05:11:00,
2013-02-23 00:16:00,72.0,69.5,30.02,SW,221,3.4,7.8,92,0.00,,---,0.00,VWS V14.01,2013-02-23 05:16:00,
2013-02-23 00:21:00,72.6,70.0,30.02,SW,215,6.2,7.2,92,0.00,,---,0.00,VWS V14.01,2013-02-23 05:21:00,
2013-02-23 00:26:00,72.1,69.4,30.02,SSW,202,7.5,7.6,91,0.00,,---,0.00,VWS V14.01,2013-02-23 05:26:00,
2013-02-23 00:31:00,72.4,69.7,30.02,South,172,2.8,9.5,91,0.00,,---,0.00,VWS V14.01,2013-02-23 05:31:00,
2013-02-23 00:34:00,72.5,69.7,30.02,South,186,3.9,3.9,91,0.00,,---,0.00,VWS V14.01,2013-02-23 05:34:00,
2013-02-23 00:39:00,72.0,69.3,30.02,SW,221,4.1,5.3,91,0.00,,---,0.00,VWS V14.01,2013-02-23 05:39:00,
2013-02-23 00:42:00,71.8,69.1,30.02,SW,218,7.0,8.6,91,0.00,,---,0.00,VWS V14.01,2013-02-23 05:42:00,
2013-02-23 00:47:00,72.1,69.4,30.02,SSW,205,3.5,6.0,91,0.00,,---,0.00,VWS V14.01,2013-02-23 05:47:00,
2013-02-23 00:52:00,71.4,68.8,30.02,SSW,201,2.5,5.6,91,0.00,,---,0.00,VWS V14.01,2013-02-23 05:52:00,
2013-02-23 00:57:00,72.0,69.4,30.01,SSW,205,3.7,7.0,92,0.00,,---,0.00,VWS V14.01,2013-02-23 05:57:00,
2013-02-23 01:02:00,71.2,68.6,30.01,SSW,195,2.1,4.8,92,0.00,,---,0.00,VWS V14.01,2013-02-23 06:02:00,
2013-02-23 01:07:00,71.5,68.9,30.01,South,176,2.6,8.1,92,0.00,,---,0.00,VWS V14.01,2013-02-23 06:07:00,
2013-02-23 01:12:00,71.4,68.8,30.01,SE,139,4.0,8.8,91,0.00,,---,0.00,VWS V14.01,2013-02-23 06:12:00,
2013-02-23 01:17:00,71.7,68.9,30.01,South,190,3.5,4.4,91,0.00,,---,0.00,VWS V14.01,2013-02-23 06:17:00,
2013-02-23 01:23:00,72.0,69.2,30.01,South,177,1.6,6.6,91,0.00,,---,0.00,VWS V14.01,2013-02-23 06:23:00,
2013-02-23 01:28:00,71.6,68.8,30.01,SSE,163,7.5,8.3,91,0.00,,---,0.00,VWS V14.01,2013-02-23 06:28:00,
2013-02-23 01:33:00,71.9,69.0,30.01,South,173,6.3,7.5,91,0.00,,---,0.00,VWS V14.01,2013-02-23 06:33:00,
2013-02-23 01:38:00,71.8,68.8,30.01,SSE,166,3.8,6.6,90,0.00,,---,0.00,VWS V14.01,2013-02-23 06:38:00,
2013-02-23 01:43:00,71.9,68.9,30.01,SSE,165,0.0,0.0,90,0.00,,---,0.00,VWS V14.01,2013-02-23 06:43:00,
2013-02-23 01:48:00,71.5,68.5,30.01,SE,139,7.5,7.5,90,0.00,,---,0.00,VWS V14.01,2013-02-23 06:48:00,
2013-02-23 01:53:00,71.7,68.6,30.01,SSE,163,5.3,7.1,90,0.00,,---,0.00,VWS V14.01,2013-02-23 06:53:00,
2013-02-23 01:59:00,71.8,68.7,30.01,South,176,4.5,8.8,90,0.00,,---,0.00,VWS V14.01,2013-02-23 06:59:00,
2013-02-23 02:04:00,72.4,69.4,30.01,SSE,155,0.0,6.3,90,0.00,,---,0.00,VWS V14.01,2013-02-23 07:04:00,
2013-02-23 02:09:00,71.8,68.9,30.00,South,187,3.7,8.8,90,0.00,,---,0.00,VWS V14.01,2013-02-23 07:09:00,
2013-02-23 02:14:00,72.2,69.4,30.00,SSE,152,2.9,5.5,91,0.00,,---,0.00,VWS V14.01,2013-02-23 07:14:00,
2013-02-23 02:19:00,71.9,69.3,30.00,SSE,167,7.5,8.3,92,0.00,,---,0.00,VWS V14.01,2013-02-23 07:19:00,
2013-02-23 02:24:00,71.6,69.3,30.00,SSE,165,8.1,9.9,92,0.00,,---,0.00,VWS V14.01,2013-02-23 07:24:00,
2013-02-23 02:29:00,71.8,69.7,30.00,South,169,6.3,7.6,93,0.00,,---,0.00,VWS V14.01,2013-02-23 07:29:00,
2013-02-23 02:34:00,71.5,69.5,30.00,SW,224,3.7,6.3,94,0.00,,---,0.00,VWS V14.01,2013-02-23 07:34:00,
2013-02-23 02:39:00,71.5,69.7,30.00,SSE,162,4.2,8.3,94,0.00,,---,0.00,VWS V14.01,2013-02-23 07:39:00,
2013-02-23 02:44:00,71.1,69.4,30.00,South,179,3.1,9.8,94,0.00,,---,0.00,VWS V14.01,2013-02-23 07:44:00,
2013-02-23 02:49:00,71.8,70.2,30.00,SSE,149,4.5,8.4,95,0.00,,---,0.00,VWS V14.01,2013-02-23 07:49:00,
2013-02-23 02:54:00,71.5,70.0,30.00,SE,132,2.7,5.4,95,0.00,,---,0.00,VWS V14.01,2013-02-23 07:54:00,
2013-02-23 02:59:00,71.7,70.2,30.00,South,170,2.9,7.0,95,0.00,,---,0.00,VWS V14.01,2013-02-23 07:59:00,
2013-02-23 03:04:00,70.9,69.5,30.00,SSW,200,4.7,8.6,95,0.00,,---,0.00,VWS V14.01,2013-02-23 08:04:00,
2013-02-23 03:09:00,71.3,69.9,30.00,SSE,163,1.9,8.1,95,0.00,,---,0.00,VWS V14.01,2013-02-23 08:09:00,
2013-02-23 03:14:00,71.5,70.1,29.99,SSW,201,3.0,4.5,95,0.00,,---,0.00,VWS V14.01,2013-02-23 08:14:00,
2013-02-23 03:20:00,71.2,69.8,29.99,South,180,2.7,7.6,95,0.00,,---,0.00,VWS V14.01,2013-02-23 08:20:00,
2013-02-23 03:26:00,70.8,69.4,29.99,SW,215,2.1,6.5,96,0.00,,---,0.00,VWS V14.01,2013-02-23 08:26:00,
2013-02-23 03:31:00,71.1,69.8,29.99,WSW,248,4.5,6.8,96,0.00,,---,0.00,VWS V14.01,2013-02-23 08:31:00,
2013-02-23 03:36:00,70.9,69.6,29.99,South,181,7.1,9.4,96,0.00,,---,0.00,VWS V14.01,2013-02-23 08:36:00,
2013-02-23 03:42:00,71.3,69.9,29.98,South,180,4.8,12.3,96,0.00,,---,0.00,VWS V14.01,2013-02-23 08:42:00,
2013-02-23 03:48:00,70.7,69.3,29.98,South,186,4.2,8.1,95,0.00,,---,0.00,VWS V14.01,2013-02-23 08:48:00,
2013-02-23 03:53:00,71.7,70.3,29.99,South,180,6.5,8.7,96,0.00,,---,0.00,VWS V14.01,2013-02-23 08:53:00,
2013-02-23 03:59:00,71.7,70.3,29.98,South,188,1.2,7.9,96,0.00,,---,0.00,VWS V14.01,2013-02-23 08:59:00,
2013-02-23 04:05:00,71.1,69.8,29.98,SSW,195,4.8,9.9,96,0.00,,---,0.00,VWS V14.01,2013-02-23 09:05:00,
2013-02-23 04:10:00,70.8,69.5,29.98,South,177,7.6,14.1,96,0.00,,---,0.00,VWS V14.01,2013-02-23 09:10:00,
2013-02-23 04:16:00,71.3,70.0,29.98,SSW,193,7.8,8.6,96,0.00,,---,0.00,VWS V14.01,2013-02-23 09:16:00,
2013-02-23 04:21:00,70.8,69.5,29.98,SE,146,1.1,6.1,96,0.00,,---,0.00,VWS V14.01,2013-02-23 09:21:00,
2013-02-23 04:26:00,70.5,69.2,29.98,South,184,7.9,9.4,96,0.00,,---,0.00,VWS V14.01,2013-02-23 09:26:00,
2013-02-23 04:31:00,71.1,69.9,29.97,South,188,7.3,9.6,96,0.00,,---,0.00,VWS V14.01,2013-02-23 09:31:00,
2013-02-23 04:37:00,70.9,69.7,29.97,South,177,3.5,7.0,96,0.00,,---,0.00,VWS V14.01,2013-02-23 09:37:00,
2013-02-23 04:43:00,71.0,69.8,29.97,SSW,194,5.1,9.4,96,0.00,,---,0.00,VWS V14.01,2013-02-23 09:43:00,
2013-02-23 04:48:00,71.0,69.9,29.97,South,179,4.9,6.5,96,0.00,,---,0.00,VWS V14.01,2013-02-23 09:48:00,
2013-02-23 04:54:00,70.8,69.7,29.97,South,181,2.9,5.8,96,0.00,,---,0.00,VWS V14.01,2013-02-23 09:54:00,
2013-02-23 04:59:00,70.9,69.8,29.97,SSW,212,8.2,10.4,96,0.00,,---,0.00,VWS V14.01,2013-02-23 09:59:00,
2013-02-23 05:04:00,70.5,69.4,29.97,South,191,9.0,9.5,96,0.00,,---,0.00,VWS V14.01,2013-02-23 10:04:00,
2013-02-23 05:09:00,70.7,69.7,29.97,South,183,4.3,6.6,96,0.00,,---,0.00,VWS V14.01,2013-02-23 10:09:00,
2013-02-23 05:14:00,70.8,69.8,29.97,SSW,211,6.9,8.6,96,0.00,,---,0.00,VWS V14.01,2013-02-23 10:14:00,
2013-02-23 05:19:00,70.6,69.6,29.97,South,191,5.0,7.5,97,0.00,,---,0.00,VWS V14.01,2013-02-23 10:19:00,
2013-02-23 05:24:00,69.9,68.9,29.97,SSE,159,2.7,6.5,97,0.00,,---,0.00,VWS V14.01,2013-02-23 10:24:00,
2013-02-23 05:29:00,70.5,69.5,29.97,SSE,166,4.7,9.0,97,0.00,,---,0.00,VWS V14.01,2013-02-23 10:29:00,
2013-02-23 05:34:00,70.6,69.6,29.97,South,187,6.3,8.1,97,0.00,,---,0.00,VWS V14.01,2013-02-23 10:34:00,
2013-02-23 05:39:00,70.5,69.5,29.97,South,174,7.1,9.4,97,0.00,,---,0.00,VWS V14.01,2013-02-23 10:39:00,
2013-02-23 05:44:00,70.3,69.3,29.97,South,176,4.6,10.6,97,0.00,,---,0.00,VWS V14.01,2013-02-23 10:44:00,
2013-02-23 05:50:00,70.0,69.0,29.97,SSE,163,6.5,9.8,97,0.00,,---,0.00,VWS V14.01,2013-02-23 10:50:00,
2013-02-23 05:55:00,69.5,68.5,29.97,SSW,211,2.2,10.4,97,0.00,,---,0.00,VWS V14.01,2013-02-23 10:55:00,
2013-02-23 06:01:00,70.5,69.5,29.97,South,179,8.3,8.3,96,0.00,,---,0.00,VWS V14.01,2013-02-23 11:01:00,
2013-02-23 06:07:00,69.9,68.9,29.97,SSW,193,5.0,8.8,97,0.00,,---,0.00,VWS V14.01,2013-02-23 11:07:00,
2013-02-23 06:13:00,69.6,68.6,29.98,SW,222,4.9,7.1,97,0.00,,---,0.00,VWS V14.01,2013-02-23 11:13:00,
2013-02-23 06:18:00,69.9,68.9,29.97,ESE,117,4.5,4.5,97,0.00,,---,0.00,VWS V14.01,2013-02-23 11:18:00,
2013-02-23 06:23:00,70.4,69.4,29.97,SW,236,4.0,8.6,97,0.00,,---,0.00,VWS V14.01,2013-02-23 11:23:00,
2013-02-23 06:28:00,70.2,69.2,29.97,SSE,163,5.1,7.2,97,0.00,,---,0.00,VWS V14.01,2013-02-23 11:28:00,
2013-02-23 06:34:00,70.4,69.4,29.98,SW,214,5.0,8.8,97,0.00,,---,0.00,VWS V14.01,2013-02-23 11:34:00,
2013-02-23 06:39:00,70.2,69.2,29.98,SSE,148,3.6,6.8,97,0.00,,---,0.00,VWS V14.01,2013-02-23 11:39:00,
2013-02-23 06:44:00,70.3,69.3,29.98,South,181,2.9,6.2,97,0.00,,---,0.00,VWS V14.01,2013-02-23 11:44:00,
2013-02-23 06:50:00,69.7,68.8,29.98,SSW,202,3.0,7.5,97,0.00,,---,0.00,VWS V14.01,2013-02-23 11:50:00,
2013-02-23 06:55:00,70.1,69.2,29.98,SSW,202,1.1,5.0,97,0.00,,---,0.00,VWS V14.01,2013-02-23 11:55:00,
2013-02-23 07:01:00,70.4,69.4,29.98,SSW,205,3.5,6.7,97,0.00,,---,0.00,VWS V14.01,2013-02-23 12:01:00,
2013-02-23 07:07:00,69.9,68.9,29.99,SSE,153,9.6,10.3,97,0.00,,---,0.00,VWS V14.01,2013-02-23 12:07:00,
2013-02-23 07:12:00,69.5,68.5,29.99,SSW,193,9.0,12.7,97,0.00,,---,0.00,VWS V14.01,2013-02-23 12:12:00,
2013-02-23 07:18:00,70.5,69.5,29.99,SSE,156,1.2,8.4,97,0.00,,---,0.00,VWS V14.01,2013-02-23 12:18:00,
2013-02-23 07:24:00,70.0,69.0,29.99,South,187,8.9,12.3,97,0.00,,---,0.00,VWS V14.01,2013-02-23 12:24:00,
2013-02-23 07:29:00,70.5,69.5,29.99,SSE,156,3.9,11.1,97,0.00,,---,0.00,VWS V14.01,2013-02-23 12:29:00,
2013-02-23 07:34:00,70.4,69.4,29.99,South,180,5.6,5.6,96,0.00,,---,0.00,VWS V14.01,2013-02-23 12:34:00,
2013-02-23 07:39:00,70.7,69.6,29.99,SW,236,0.0,6.2,96,0.00,,---,0.00,VWS V14.01,2013-02-23 12:39:00,
2013-02-23 07:45:00,70.7,69.5,29.99,SW,219,6.7,10.8,96,0.00,,---,0.00,VWS V14.01,2013-02-23 12:45:00,
2013-02-23 07:50:00,70.8,69.6,29.99,SSW,204,5.5,12.2,96,0.00,,---,0.00,VWS V14.01,2013-02-23 12:50:00,
2013-02-23 07:55:00,70.7,69.4,30.00,SSW,200,8.5,11.7,96,0.00,,---,0.00,VWS V14.01,2013-02-23 12:55:00,
2013-02-23 08:00:00,71.0,69.6,30.00,SSW,200,11.1,16.8,95,0.00,,---,0.00,VWS V14.01,2013-02-23 13:00:00,
2013-02-23 08:05:00,71.3,69.7,30.00,SSW,204,4.8,8.6,95,0.00,,---,0.00,VWS V14.01,2013-02-23 13:05:00,
2013-02-23 08:10:00,71.4,69.6,30.00,SW,233,6.2,12.3,94,0.00,,---,0.00,VWS V14.01,2013-02-23 13:10:00,
2013-02-23 08:15:00,71.9,69.9,30.00,South,177,8.6,9.0,93,0.00,,---,0.00,VWS V14.01,2013-02-23 13:15:00,
2013-02-23 08:20:00,71.8,69.6,30.00,South,184,7.3,11.4,93,0.00,,---,0.00,VWS V14.01,2013-02-23 13:20:00,
2013-02-23 08:26:00,71.3,69.0,30.01,WSW,252,5.8,7.4,92,0.00,,---,0.00,VWS V14.01,2013-02-23 13:26:00,
2013-02-23 08:32:00,71.2,68.7,30.01,South,190,4.3,9.1,92,0.00,,---,0.00,VWS V14.01,2013-02-23 13:32:00,
2013-02-23 08:37:00,71.9,69.2,30.01,South,190,8.9,12.1,91,0.00,,---,0.00,VWS V14.01,2013-02-23 13:37:00,
2013-02-23 08:42:00,71.9,69.0,30.01,South,177,6.7,14.7,91,0.00,,---,0.00,VWS V14.01,2013-02-23 13:42:00,
2013-02-23 08:47:00,72.4,69.3,30.01,SSE,167,9.8,14.5,90,0.00,,---,0.00,VWS V14.01,2013-02-23 13:47:00,
2013-02-23 08:52:00,71.9,68.8,30.02,SW,221,8.3,12.8,90,0.00,,---,0.00,VWS V14.01,2013-02-23 13:52:00,
2013-02-23 08:57:00,72.6,69.2,30.02,SSW,194,9.8,9.8,89,0.00,,---,0.00,VWS V14.01,2013-02-23 13:57:00,
2013-02-23 09:02:00,72.9,69.2,30.01,SSE,159,8.8,10.3,88,0.00,,---,0.00,VWS V14.01,2013-02-23 14:02:00,
2013-02-23 09:07:00,73.1,69.1,30.01,SSW,194,6.3,12.1,87,0.00,,---,0.00,VWS V14.01,2013-02-23 14:07:00,
2013-02-23 09:12:00,73.2,68.7,30.01,South,183,6.7,6.7,86,0.00,,---,0.00,VWS V14.01,2013-02-23 14:12:00,
2013-02-23 09:18:00,73.7,68.8,30.01,SW,215,2.8,13.9,85,0.00,,---,0.00,VWS V14.01,2013-02-23 14:18:00,
2013-02-23 09:23:00,73.8,69.1,30.01,SSW,207,12.1,12.1,85,0.00,,---,0.00,VWS V14.01,2013-02-23 14:23:00,
2013-02-23 09:28:00,73.1,68.1,30.01,SSW,197,8.1,9.5,84,0.00,,---,0.00,VWS V14.01,2013-02-23 14:28:00,
2013-02-23 09:34:00,73.5,68.3,30.01,South,179,4.6,10.7,84,0.00,,---,0.00,VWS V14.01,2013-02-23 14:34:00,
2013-02-23 09:40:00,74.5,68.7,30.01,SSW,194,13.0,16.7,82,0.00,,---,0.00,VWS V14.01,2013-02-23 14:40:00,
2013-02-23 09:45:00,74.8,68.3,30.01,SW,232,4.6,11.9,80,0.00,,---,0.00,VWS V14.01,2013-02-23 14:45:00,
2013-02-23 09:50:00,75.5,68.2,30.01,SW,214,8.0,13.4,78,0.00,,---,0.00,VWS V14.01,2013-02-23 14:50:00,
2013-02-23 09:55:00,76.1,67.8,30.00,SSW,198,3.9,12.4,76,0.00,,---,0.00,VWS V14.01,2013-02-23 14:55:00,
2013-02-23 10:00:00,75.9,67.1,30.00,South,181,10.1,18.5,74,0.00,,---,0.00,VWS V14.01,2013-02-23 15:00:00,
2013-02-23 10:06:00,76.1,67.6,30.00,SSW,210,7.0,16.0,75,0.00,,---,0.00,VWS V14.01,2013-02-23 15:06:00,
2013-02-23 10:11:00,76.8,67.6,30.00,South,177,6.6,13.8,73,0.00,,---,0.00,VWS V14.01,2013-02-23 15:11:00,
2013-02-23 10:16:00,77.0,67.3,30.00,South,176,8.6,10.1,72,0.00,,---,0.00,VWS V14.01,2013-02-23 15:16:00,
2013-02-23 10:21:00,77.5,66.9,30.00,SSE,153,7.8,14.9,70,0.00,,---,0.00,VWS V14.01,2013-02-23 15:21:00,
2013-02-23 10:26:00,77.0,66.6,30.00,South,179,11.6,12.8,70,0.00,,---,0.00,VWS V14.01,2013-02-23 15:26:00,
2013-02-23 10:31:00,76.8,66.7,30.00,South,187,6.0,10.7,71,0.00,,---,0.00,VWS V14.01,2013-02-23 15:31:00,
2013-02-23 10:36:00,76.6,65.7,30.00,SSW,195,8.1,18.4,69,0.00,,---,0.00,VWS V14.01,2013-02-23 15:36:00,
2013-02-23 10:41:00,77.9,66.1,29.99,South,184,4.6,13.7,67,0.00,,---,0.00,VWS V14.01,2013-02-23 15:41:00,
2013-02-23 10:46:00,78.9,66.4,29.99,SW,219,9.1,11.9,66,0.00,,---,0.00,VWS V14.01,2013-02-23 15:46:00,
2013-02-23 10:51:00,78.3,65.8,29.99,SSE,160,5.7,11.1,66,0.00,,---,0.00,VWS V14.01,2013-02-23 15:51:00,
2013-02-23 10:56:00,78.5,65.4,29.99,SSW,212,14.4,14.4,64,0.00,,---,0.00,VWS V14.01,2013-02-23 15:56:00,
2013-02-23 11:01:00,78.5,65.8,30.00,WSW,249,6.8,10.3,65,0.00,,---,0.00,VWS V14.01,2013-02-23 16:01:00,
2013-02-23 11:06:00,78.4,66.0,30.00,SW,229,13.6,14.3,66,0.00,,---,0.00,VWS V14.01,2013-02-23 16:06:00,
2013-02-23 11:11:00,78.8,65.7,29.99,South,183,5.7,11.8,64,0.00,,---,0.00,VWS V14.01,2013-02-23 16:11:00,
2013-02-23 11:16:00,78.9,64.8,29.99,SSW,193,12.8,17.3,62,0.00,,---,0.00,VWS V14.01,2013-02-23 16:16:00,
2013-02-23 11:21:00,79.4,65.5,29.99,SSW,207,4.5,7.8,62,0.00,,---,0.00,VWS V14.01,2013-02-23 16:21:00,
2013-02-23 11:26:00,80.6,65.4,29.99,South,173,11.9,15.8,60,0.00,,---,0.00,VWS V14.01,2013-02-23 16:26:00,
2013-02-23 11:31:00,80.3,64.8,29.99,South,190,8.9,16.0,59,0.00,,---,0.00,VWS V14.01,2013-02-23 16:31:00,
2013-02-23 11:36:00,80.4,65.4,29.99,South,190,8.0,12.9,60,0.00,,---,0.00,VWS V14.01,2013-02-23 16:36:00,
2013-02-23 11:41:00,79.3,65.0,29.99,SW,219,5.7,11.5,62,0.00,,---,0.00,VWS V14.01,2013-02-23 16:41:00,
2013-02-23 11:46:00,79.9,65.6,29.98,South,173,14.4,15.0,62,0.00,,---,0.00,VWS V14.01,2013-02-23 16:46:00,
2013-02-23 11:51:00,80.7,64.8,29.98,South,174,10.4,14.9,58,0.00,,---,0.00,VWS V14.01,2013-02-23 16:51:00,
2013-02-23 11:56:00,80.3,65.0,29.98,South,186,10.8,11.9,60,0.00,,---,0.00,VWS V14.01,2013-02-23 16:56:00,
2013-02-23 12:01:00,80.1,64.3,29.98,South,191,6.6,12.4,59,0.00,,---,0.00,VWS V14.01,2013-02-23 17:01:00,
2013-02-23 12:06:00,81.4,65.2,29.98,SW,235,7.8,9.6,58,0.00,,---,0.00,VWS V14.01,2013-02-23 17:06:00,
2013-02-23 12:11:00,81.4,64.4,29.98,WSW,248,6.3,12.7,56,0.00,,---,0.00,VWS V14.01,2013-02-23 17:11:00,
2013-02-23 12:16:00,82.1,65.3,29.97,SSW,211,6.2,12.4,57,0.00,,---,0.00,VWS V14.01,2013-02-23 17:16:00,
2013-02-23 12:21:00,81.5,65.0,29.97,SSW,210,3.3,10.3,57,0.00,,---,0.00,VWS V14.01,2013-02-23 17:21:00,
2013-02-23 12:26:00,82.4,65.7,29.97,SW,224,3.3,6.1,57,0.00,,---,0.00,VWS V14.01,2013-02-23 17:26:00,
2013-02-23 12:31:00,82.4,65.0,29.97,SW,221,8.6,13.0,56,0.00,,---,0.00,VWS V14.01,2013-02-23 17:31:00,
2013-02-23 12:36:00,82.2,64.6,29.97,South,176,11.1,15.5,55,0.00,,---,0.00,VWS V14.01,2013-02-23 17:36:00,
2013-02-23 12:41:00,82.4,63.7,29.96,South,181,9.4,14.5,53,0.00,,---,0.00,VWS V14.01,2013-02-23 17:41:00,
2013-02-23 12:46:00,83.2,64.3,29.96,SSW,195,6.5,10.6,53,0.00,,---,0.00,VWS V14.01,2013-02-23 17:46:00,
2013-02-23 12:51:00,82.8,63.5,29.96,SSW,212,7.5,15.7,52,0.00,,---,0.00,VWS V14.01,2013-02-23 17:51:00,
2013-02-23 12:56:00,82.9,63.2,29.95,WSW,240,6.3,14.1,52,0.00,,---,0.00,VWS V14.01,2013-02-23 17:56:00,
2013-02-23 13:01:00,82.7,63.0,29.95,SSW,204,8.1,13.8,52,0.00,,---,0.00,VWS V14.01,2013-02-23 18:01:00,
2013-02-23 13:06:00,83.4,62.6,29.95,SSW,210,5.9,9.3,50,0.00,,---,0.00,VWS V14.01,2013-02-23 18:06:00,
2013-02-23 13:11:00,84.3,63.1,29.95,SSW,200,6.4,14.1,49,0.00,,---,0.00,VWS V14.01,2013-02-23 18:11:00,
2013-02-23 13:16:00,84.0,63.2,29.94,SSW,210,7.8,16.5,50,0.00,,---,0.00,VWS V14.01,2013-02-23 18:16:00,
2013-02-23 13:21:00,84.5,63.4,29.94,WSW,240,6.2,9.2,49,0.00,,---,0.00,VWS V14.01,2013-02-23 18:21:00,
2013-02-23 13:26:00,84.8,63.9,29.93,West,262,4.0,10.7,50,0.00,,---,0.00,VWS V14.01,2013-02-23 18:26:00,
2013-02-23 13:31:00,83.9,62.0,29.93,SSW,197,10.8,14.8,48,0.00,,---,0.00,VWS V14.01,2013-02-23 18:31:00,
2013-02-23 13:36:00,84.4,62.6,29.93,WSW,248,9.0,14.5,48,0.00,,---,0.00,VWS V14.01,2013-02-23 18:36:00,
2013-02-23 13:41:00,84.2,62.2,29.93,SW,221,12.2,17.6,48,0.00,,---,0.00,VWS V14.01,2013-02-23 18:41:00,
2013-02-23 13:46:00,83.1,60.9,29.93,WSW,249,6.9,17.4,47,0.00,,---,0.00,VWS V14.01,2013-02-23 18:46:00,
2013-02-23 13:51:00,84.5,62.4,29.92,WSW,243,5.2,12.1,48,0.00,,---,0.00,VWS V14.01,2013-02-23 18:51:00,
2013-02-23 13:56:00,85.5,62.3,29.92,SW,215,9.6,14.0,46,0.00,,---,0.00,VWS V14.01,2013-02-23 18:56:00,
2013-02-23 14:01:00,86.0,62.0,29.92,SW,236,4.5,9.5,45,0.00,,---,0.00,VWS V14.01,2013-02-23 19:01:00,
2013-02-23 14:06:00,86.3,62.0,29.91,West,260,3.0,6.8,44,0.00,,---,0.00,VWS V14.01,2013-02-23 19:06:00,
2013-02-23 14:11:00,86.6,61.7,29.91,SW,219,12.1,15.7,43,0.00,,---,0.00,VWS V14.01,2013-02-23 19:11:00,
2013-02-23 14:16:00,86.2,61.2,29.91,SSW,197,8.1,13.5,43,0.00,,---,0.00,VWS V14.01,2013-02-23 19:16:00,
2013-02-23 14:21:00,87.2,61.9,29.91,SSE,166,6.8,13.6,43,0.00,,---,0.00,VWS V14.01,2013-02-23 19:21:00,
2013-02-23 14:26:00,86.7,61.3,29.90,West,262,5.8,11.1,43,0.00,,---,0.00,VWS V14.01,2013-02-23 19:26:00,
2013-02-23 14:31:00,85.9,61.4,29.91,West,264,9.1,11.7,44,0.00,,---,0.00,VWS V14.01,2013-02-23 19:31:00,
2013-02-23 14:36:00,84.2,60.5,29.91,SW,232,7.6,12.6,45,0.00,,---,0.00,VWS V14.01,2013-02-23 19:36:00,
2013-02-23 14:41:00,84.8,60.9,29.90,SW,219,9.7,10.5,45,0.00,,---,0.00,VWS V14.01,2013-02-23 19:41:00,
2013-02-23 14:46:00,85.8,61.1,29.90,SSE,166,8.4,15.2,44,0.00,,---,0.00,VWS V14.01,2013-02-23 19:46:00,
2013-02-23 14:51:00,84.2,60.1,29.90,SW,232,11.2,18.3,44,0.00,,---,0.00,VWS V14.01,2013-02-23 19:51:00,
2013-02-23 14:56:00,85.7,61.4,29.90,SW,221,6.6,20.9,44,0.00,,---,0.00,VWS V14.01,2013-02-23 19:56:00,
2013-02-23 15:01:00,86.3,61.8,29.90,South,181,6.1,9.3,44,0.00,,---,0.00,VWS V14.01,2013-02-23 20:01:00,
2013-02-23 15:06:00,87.4,62.2,29.90,SSW,207,8.3,10.5,43,0.00,,---,0.00,VWS V14.01,2013-02-23 20:06:00,
2013-02-23 15:11:00,86.7,61.4,29.90,WSW,238,10.0,13.0,43,0.00,,---,0.00,VWS V14.01,2013-02-23 20:11:00,
2013-02-23 15:16:00,85.5,61.2,29.89,SW,232,8.6,11.4,44,0.00,,---,0.00,VWS V14.01,2013-02-23 20:16:00,
2013-02-23 15:21:00,85.8,61.8,29.89,WSW,248,9.1,10.1,45,0.00,,---,0.00,VWS V14.01,2013-02-23 20:21:00,
2013-02-23 15:26:00,85.1,61.8,29.89,West,266,3.2,7.3,46,0.00,,---,0.00,VWS V14.01,2013-02-23 20:26:00,
2013-02-23 15:31:00,86.0,60.5,29.89,SW,217,8.8,12.3,42,0.00,,---,0.00,VWS V14.01,2013-02-23 20:31:00,
2013-02-23 15:36:00,86.7,61.1,29.89,SSW,195,10.0,11.9,42,0.00,,---,0.00,VWS V14.01,2013-02-23 20:36:00,
2013-02-23 15:41:00,85.8,60.9,29.89,SW,236,9.8,12.5,43,0.00,,---,0.00,VWS V14.01,2013-02-23 20:41:00,
2013-02-23 15:46:00,86.1,61.4,29.89,SW,221,9.1,10.0,44,0.00,,---,0.00,VWS V14.01,2013-02-23 20:46:00,
2013-02-23 15:51:00,85.7,61.0,29.89,WSW,245,6.6,15.3,44,0.00,,---,0.00,VWS V14.01,2013-02-23 20:51:00,
2013-02-23 15:56:00,86.0,60.1,29.89,SW,231,10.4,15.5,42,0.00,,---,0.00,VWS V14.01,2013-02-23 20:56:00,
2013-02-23 16:01:00,85.9,59.8,29.89,WSW,245,7.4,11.4,42,0.00,,---,0.00,VWS V14.01,2013-02-23 21:01:00,
2013-02-23 16:06:00,86.7,60.5,29.89,West,266,5.8,5.8,42,0.00,,---,0.00,VWS V14.01,2013-02-23 21:06:00,
2013-02-23 16:11:00,87.2,59.5,29.88,SW,236,4.7,14.0,39,0.00,,---,0.00,VWS V14.01,2013-02-23 21:11:00,
2013-02-23 16:17:00,86.8,59.3,29.88,WNW,294,3.1,9.3,40,0.00,,---,0.00,VWS V14.01,2013-02-23 21:17:00,
2013-02-23 16:22:00,87.0,59.2,29.88,WSW,243,15.4,15.4,39,0.00,,---,0.00,VWS V14.01,2013-02-23 21:22:00,
2013-02-23 16:27:00,86.8,59.4,29.89,WSW,245,9.3,18.8,40,0.00,,---,0.00,VWS V14.01,2013-02-23 21:27:00,
2013-02-23 16:32:00,86.5,59.5,29.89,SW,221,5.0,11.8,40,0.00,,---,0.00,VWS V14.01,2013-02-23 21:32:00,
2013-02-23 16:37:00,86.3,59.0,29.89,SW,217,10.8,12.6,40,0.00,,---,0.00,VWS V14.01,2013-02-23 21:37:00,
2013-02-23 16:42:00,85.5,58.0,29.89,SW,229,14.0,17.0,39,0.00,,---,0.00,VWS V14.01,2013-02-23 21:42:00,
2013-02-23 16:47:00,86.1,58.8,29.89,West,260,7.6,16.2,40,0.00,,---,0.00,VWS V14.01,2013-02-23 21:47:00,
2013-02-23 16:52:00,85.9,58.8,29.89,WSW,238,11.2,16.7,40,0.00,,---,0.00,VWS V14.01,2013-02-23 21:52:00,
2013-02-23 16:58:00,85.8,59.6,29.89,West,266,7.1,9.3,41,0.00,,---,0.00,VWS V14.01,2013-02-23 21:58:00,
2013-02-23 17:03:00,85.9,59.3,29.89,West,263,7.4,12.7,41,0.00,,---,0.00,VWS V14.01,2013-02-23 22:03:00,
2013-02-23 17:08:00,85.4,58.6,29.89,SW,217,13.5,15.8,40,0.00,,---,0.00,VWS V14.01,2013-02-23 22:08:00,
2013-02-23 17:13:00,85.1,59.1,29.89,West,267,6.8,13.0,42,0.00,,---,0.00,VWS V14.01,2013-02-23 22:13:00,
2013-02-23 17:18:00,84.9,59.4,29.89,WSW,240,6.2,11.4,42,0.00,,---,0.00,VWS V14.01,2013-02-23 22:18:00,
2013-02-23 17:23:00,84.4,59.2,29.89,WSW,248,6.7,11.9,43,0.00,,---,0.00,VWS V14.01,2013-02-23 22:23:00,
2013-02-23 17:28:00,83.6,58.7,29.89,WSW,238,5.3,10.1,43,0.00,,---,0.00,VWS V14.01,2013-02-23 22:28:00,
2013-02-23 17:33:00,83.9,59.1,29.89,West,262,4.1,11.6,43,0.00,,---,0.00,VWS V14.01,2013-02-23 22:33:00,
2013-02-23 17:38:00,83.7,59.2,29.89,WSW,238,8.5,12.4,44,0.00,,---,0.00,VWS V14.01,2013-02-23 22:38:00,
2013-02-23 17:43:00,83.8,59.7,29.89,SW,236,8.0,9.3,44,0.00,,---,0.00,VWS V14.01,2013-02-23 22:43:00,
2013-02-23 17:48:00,83.3,59.5,29.89,WSW,243,5.9,8.1,45,0.00,,---,0.00,VWS V14.01,2013-02-23 22:48:00,
2013-02-23 17:53:00,83.2,59.5,29.90,SW,225,0.0,0.0,45,0.00,,---,0.00,VWS V14.01,2013-02-23 22:53:00,
2013-02-23 17:58:00,82.4,59.3,29.90,SW,225,0.0,1.6,46,0.00,,---,0.00,VWS V14.01,2013-02-23 22:58:00,
2013-02-23 18:03:00,82.3,59.6,29.90,SW,225,0.0,0.0,46,0.00,,---,0.00,VWS V14.01,2013-02-23 23:03:00,
2013-02-23 18:08:00,82.4,59.8,29.90,SW,225,0.0,0.0,46,0.00,,---,0.00,VWS V14.01,2013-02-23 23:08:00,
2013-02-23 18:13:00,82.0,59.5,29.90,SW,225,0.0,0.0,46,0.00,,---,0.00,VWS V14.01,2013-02-23 23:13:00,
2013-02-23 18:18:00,81.3,59.0,29.91,WSW,239,7.1,8.8,47,0.00,,---,0.00,VWS V14.01,2013-02-23 23:18:00,
2013-02-23 18:23:00,81.4,59.3,29.91,SW,228,8.5,10.3,47,0.00,,---,0.00,VWS V14.01,2013-02-23 23:23:00,
2013-02-23 18:28:00,80.9,59.2,29.91,SW,236,6.4,8.9,48,0.00,,---,0.00,VWS V14.01,2013-02-23 23:28:00,
2013-02-23 18:33:00,81.4,59.5,29.91,West,259,6.6,7.6,48,0.00,,---,0.00,VWS V14.01,2013-02-23 23:33:00,
2013-02-23 18:38:00,81.2,59.5,29.91,SW,231,6.3,10.0,48,0.00,,---,0.00,VWS V14.01,2013-02-23 23:38:00,
2013-02-23 18:43:00,81.2,59.4,29.91,WNW,291,7.9,10.9,48,0.00,,---,0.00,VWS V14.01,2013-02-23 23:43:00,
2013-02-23 18:48:00,80.1,58.4,29.91,SSW,208,7.8,11.1,48,0.00,,---,0.00,VWS V14.01,2013-02-23 23:48:00,
2013-02-23 18:53:00,80.3,58.8,29.91,WNW,288,4.8,8.6,48,0.00,,---,0.00,VWS V14.01,2013-02-23 23:53:00,
2013-02-23 18:58:00,79.9,58.7,29.92,WSW,248,6.0,9.6,48,0.00,,---,0.00,VWS V14.01,2013-02-23 23:58:00,
2013-02-23 19:03:00,80.0,59.1,29.92,West,281,5.9,6.0,49,0.00,,---,0.00,VWS V14.01,2013-02-24 00:03:00,
2013-02-23 19:08:00,80.2,59.6,29.92,WSW,240,3.3,8.3,50,0.00,,---,0.00,VWS V14.01,2013-02-24 00:08:00,
2013-02-23 19:13:00,79.9,60.0,29.92,WSW,252,3.0,7.8,51,0.00,,---,0.00,VWS V14.01,2013-02-24 00:13:00,
2013-02-23 19:18:00,79.5,60.1,29.92,WSW,253,5.1,8.6,52,0.00,,---,0.00,VWS V14.01,2013-02-24 00:18:00,
2013-02-23 19:23:00,79.4,60.6,29.92,WSW,250,7.1,7.1,53,0.00,,---,0.00,VWS V14.01,2013-02-24 00:23:00,
2013-02-23 19:28:00,79.2,60.8,29.92,WSW,240,6.3,7.1,53,0.00,,---,0.00,VWS V14.01,2013-02-24 00:28:00,
2013-02-23 19:33:00,78.7,60.7,29.92,WSW,245,5.4,7.6,54,0.00,,---,0.00,VWS V14.01,2013-02-24 00:33:00,
2013-02-23 19:38:00,78.3,60.7,29.93,WSW,240,4.7,6.6,55,0.00,,---,0.00,VWS V14.01,2013-02-24 00:38:00,
2013-02-23 19:43:00,78.0,60.8,29.93,WSW,243,2.8,4.8,56,0.00,,---,0.00,VWS V14.01,2013-02-24 00:43:00,
2013-02-23 19:48:00,78.0,61.2,29.93,WSW,239,5.6,5.6,56,0.00,,---,0.00,VWS V14.01,2013-02-24 00:48:00,
2013-02-23 19:53:00,78.4,62.0,29.93,WSW,240,3.6,6.2,57,0.00,,---,0.00,VWS V14.01,2013-02-24 00:53:00,
2013-02-23 19:58:00,78.3,62.4,29.92,WSW,246,5.8,8.7,58,0.00,,---,0.00,VWS V14.01,2013-02-24 00:58:00,
2013-02-23 20:03:00,78.1,62.7,29.92,WSW,252,6.1,6.9,59,0.00,,---,0.00,VWS V14.01,2013-02-24 01:03:00,
2013-02-23 20:08:00,76.9,62.0,29.93,WSW,238,3.8,8.0,60,0.00,,---,0.00,VWS V14.01,2013-02-24 01:08:00,
2013-02-23 20:13:00,77.5,63.0,29.93,WSW,252,5.9,8.6,61,0.00,,---,0.00,VWS V14.01,2013-02-24 01:13:00,
2013-02-23 20:18:00,77.2,63.1,29.93,WSW,246,6.5,6.8,62,0.00,,---,0.00,VWS V14.01,2013-02-24 01:18:00,
2013-02-23 20:23:00,77.4,63.7,29.92,WSW,240,2.9,5.5,63,0.00,,---,0.00,VWS V14.01,2013-02-24 01:23:00,
2013-02-23 20:28:00,77.2,64.1,29.92,WSW,240,5.3,6.1,64,0.00,,---,0.00,VWS V14.01,2013-02-24 01:28:00,
2013-02-23 20:33:00,77.1,64.5,29.93,WSW,257,3.2,6.3,65,0.00,,---,0.00,VWS V14.01,2013-02-24 01:33:00,
2013-02-23 20:38:00,76.5,64.5,29.93,WSW,245,5.9,8.2,66,0.00,,---,0.00,VWS V14.01,2013-02-24 01:38:00,
2013-02-23 20:43:00,76.7,65.3,29.93,SW,224,3.4,5.0,68,0.00,,---,0.00,VWS V14.01,2013-02-24 01:43:00,
2013-02-23 20:48:00,75.9,65.1,29.93,WSW,242,4.7,7.1,69,0.00,,---,0.00,VWS V14.01,2013-02-24 01:48:00,
2013-02-23 20:53:00,76.5,66.0,29.93,SW,232,3.9,8.0,70,0.00,,---,0.00,VWS V14.01,2013-02-24 01:53:00,
2013-02-23 20:58:00,76.2,66.0,29.93,SW,217,7.2,8.1,71,0.00,,---,0.00,VWS V14.01,2013-02-24 01:58:00,
2013-02-23 21:03:00,76.0,66.3,29.93,SW,232,3.9,9.3,72,0.00,,---,0.00,VWS V14.01,2013-02-24 02:03:00,
2013-02-23 21:08:00,75.5,66.3,29.93,WSW,252,4.5,8.1,73,0.00,,---,0.00,VWS V14.01,2013-02-24 02:08:00,
2013-02-23 21:13:00,75.7,66.8,29.93,West,260,4.4,6.5,74,0.00,,---,0.00,VWS V14.01,2013-02-24 02:13:00,
2013-02-23 21:18:00,75.6,67.2,29.93,SW,218,7.7,7.7,75,0.00,,---,0.00,VWS V14.01,2013-02-24 02:18:00,
2013-02-23 21:23:00,75.0,67.0,29.93,WSW,249,7.9,9.8,76,0.00,,---,0.00,VWS V14.01,2013-02-24 02:23:00,
2013-02-23 21:28:00,75.2,67.6,29.94,WSW,253,6.6,10.1,77,0.00,,---,0.00,VWS V14.01,2013-02-24 02:28:00,
2013-02-23 21:33:00,75.3,68.1,29.94,SW,236,7.6,9.7,78,0.00,,---,0.00,VWS V14.01,2013-02-24 02:33:00,
2013-02-23 21:38:00,75.1,68.4,29.94,WSW,249,5.6,11.6,80,0.00,,---,0.00,VWS V14.01,2013-02-24 02:38:00,
2013-02-23 21:43:00,74.6,68.1,29.94,WSW,240,5.3,10.3,80,0.00,,---,0.00,VWS V14.01,2013-02-24 02:43:00,
2013-02-23 21:48:00,74.2,68.2,29.94,SSW,207,6.1,6.1,82,0.00,,---,0.00,VWS V14.01,2013-02-24 02:48:00,
2013-02-23 21:53:00,74.6,68.8,29.94,SSW,198,4.8,5.2,82,0.00,,---,0.00,VWS V14.01,2013-02-24 02:53:00,
2013-02-23 21:58:00,73.6,68.2,29.95,SW,222,5.5,8.9,83,0.00,,---,0.00,VWS V14.01,2013-02-24 02:58:00,
2013-02-23 22:03:00,74.2,69.1,29.94,SW,228,7.5,8.1,84,0.00,,---,0.00,VWS V14.01,2013-02-24 03:03:00,
2013-02-23 22:09:00,73.5,68.8,29.94,WSW,242,4.6,7.3,85,0.00,,---,0.00,VWS V14.01,2013-02-24 03:09:00,
2013-02-23 22:14:00,73.5,68.8,29.94,SW,226,2.9,8.1,85,0.00,,---,0.00,VWS V14.01,2013-02-24 03:14:00,
2013-02-23 22:19:00,73.5,69.1,29.95,SW,225,5.2,5.3,86,0.00,,---,0.00,VWS V14.01,2013-02-24 03:19:00,
2013-02-23 22:24:00,73.8,69.6,29.94,SW,233,7.7,8.1,87,0.00,,---,0.00,VWS V14.01,2013-02-24 03:24:00,
2013-02-23 22:29:00,73.0,69.0,29.94,SW,218,4.3,7.2,87,0.00,,---,0.00,VWS V14.01,2013-02-24 03:29:00,
2013-02-23 22:34:00,73.1,69.3,29.95,SW,221,6.8,7.4,88,0.00,,---,0.00,VWS V14.01,2013-02-24 03:34:00,
2013-02-23 22:39:00,72.4,68.8,29.95,West,260,4.8,5.3,89,0.00,,---,0.00,VWS V14.01,2013-02-24 03:39:00,
2013-02-23 22:44:00,72.3,68.9,29.94,SW,229,6.0,7.5,89,0.00,,---,0.00,VWS V14.01,2013-02-24 03:44:00,
2013-02-23 22:49:00,73.1,69.8,29.94,SSW,201,4.5,5.5,90,0.00,,---,0.00,VWS V14.01,2013-02-24 03:49:00,
2013-02-23 22:54:00,72.9,69.8,29.94,SW,225,3.2,5.7,90,0.00,,---,0.00,VWS V14.01,2013-02-24 03:54:00,
2013-02-23 22:59:00,72.9,70.0,29.94,WSW,246,5.5,6.8,91,0.00,,---,0.00,VWS V14.01,2013-02-24 03:59:00,
2013-02-23 23:04:00,72.9,70.1,29.94,SW,215,5.1,6.3,91,0.00,,---,0.00,VWS V14.01,2013-02-24 04:04:00,
2013-02-23 23:09:00,72.7,70.1,29.94,South,188,3.4,6.5,92,0.00,,---,0.00,VWS V14.01,2013-02-24 04:09:00,
2013-02-23 23:14:00,72.6,70.1,29.94,SSW,207,2.1,6.8,92,0.00,,---,0.00,VWS V14.01,2013-02-24 04:14:00,
2013-02-23 23:19:00,72.6,70.3,29.94,SW,221,5.5,5.5,92,0.00,,---,0.00,VWS V14.01,2013-02-24 04:19:00,
2013-02-23 23:24:00,71.5,69.5,29.94,SW,218,5.4,7.0,93,0.00,,---,0.00,VWS V14.01,2013-02-24 04:24:00,
2013-02-23 23:29:00,72.2,70.4,29.94,SSW,208,2.9,5.3,94,0.00,,---,0.00,VWS V14.01,2013-02-24 04:29:00,
2013-02-23 23:34:00,72.0,70.4,29.94,SW,224,2.2,8.5,95,0.00,,---,0.00,VWS V14.01,2013-02-24 04:34:00,
2013-02-23 23:39:00,71.8,70.3,29.94,SW,217,8.0,9.2,95,0.00,,---,0.00,VWS V14.01,2013-02-24 04:39:00,
2013-02-23 23:44:00,72.1,70.7,29.93,SW,233,3.9,10.4,95,0.00,,---,0.00,VWS V14.01,2013-02-24 04:44:00,
2013-02-23 23:49:00,71.9,70.6,29.93,SW,229,7.3,8.9,96,0.00,,---,0.00,VWS V14.01,2013-02-24 04:49:00,
2013-02-23 23:54:00,71.0,69.8,29.93,SSW,198,7.1,9.3,96,0.00,,---,0.00,VWS V14.01,2013-02-24 04:54:00,